This demonstration page uses our WeatherBlox Daily Observations layout. Learn more.

Left ArrowRight Arrow

38.83388, -104.82136

Hourly Observations for November 9, 2019

Temp ( °F °C ) Dew Point ( °F °C ) Humidity (%) Winds ( mph kmh ) Pressure ( in mb ) Visibility ( mi km ) Precip ( " mm )
12:58 am 00:58 Clear 52 11.3 10 -12.1 18 18 SSW 8 13 29.85 1011 10 16 0.00 0.00
1:58 am 01:58 Clear 52 11 11 -11.8 19 19 S 7 11 29.83 1010 10 16 0.00 0.00
2:58 am 02:58 Clear 46 7.8 15 -9.2 29 29 Calm 29.86 1011 10 16 0.00 0.00
3:58 am 03:58 Clear 44 6.9 16 -9 31 31 WNW 3 6 29.89 1012 10 16 0.00 0.00
4:58 am 04:58 Clear 46 8 16 -8.9 29 29 Calm 29.86 1011 10 16 0.00 0.00
5:58 am 05:58 Clear 47 8.1 17 -8.5 30 30 Calm 29.85 1011 10 16 0.00 0.00
6:58 am 06:58 Sunny 47 8.3 18 -7.6 32 32 Calm 29.84 1011 10 16 0.00 0.00
7:58 am 07:58 Sunny 53 11.8 19 -7.4 26 26 Calm 29.81 1009 10 16 0.00 0.00
8:58 am 08:58 Sunny 55 12.6 19 -7.3 24 24 Calm 29.81 1009 10 16 0.00 0.00
9:58 am 09:58 Sunny 60 15.6 20 -6.7 21 21 SE 5 7 29.77 1008 10 16 0.00 0.00
10:58 am 10:58 Sunny 62 16.8 22 -5.8 21 21 Calm 29.75 1007 10 16 0.00 0.00
11:58 am 11:58 Sunny 65 18.3 19 -7.3 17 17 SE 9 15 29.69 1005 10 16 0.00 0.00
12:58 pm 12:58 Sunny 66 19.1 17 -8.5 15 15 SE 8 13 29.64 1004 10 16 0.00 0.00
1:58 pm 13:58 Sunny 68 19.8 18 -7.7 15 15 SE 6 9 29.63 1003 10 16 0.00 0.00
2:58 pm 14:58 Sunny 63 17.2 17 -8.2 17 17 S 3 6 29.68 1005 10 16 0.00 0.00
3:58 pm 15:58 Sunny 59 15 21 -6.2 23 23 SSW 6 9 29.70 1006 10 16 0.00 0.00
4:58 pm 16:58 Clear 55 12.9 22 -5.4 28 28 Calm 29.70 1006 10 16 0.00 0.00
5:58 pm 17:58 Clear 54 12.2 21 -6 28 28 W 3 6 29.73 1007 10 16 0.00 0.00
7:58 pm 19:58 Clear 53 11.8 19 -7.1 26 26 Calm 29.71 1006 10 16 0.00 0.00
8:58 pm 20:58 Clear 56 13.2 9 -12.6 15 15 WNW 10 17 29.70 1006 10 16 0.00 0.00
9:58 pm 21:58 Clear 54 12.4 13 -10.3 20 20 WNW 8 13 29.69 1005 10 16 0.00 0.00
10:58 pm 22:58 Clear 56 13.3 7 -13.7 14 14 NW 12 19 29.65 1004 10 16 0.00 0.00
11:58 pm 23:58 Clear 52 11.2 13 -10.8 20 20 W 7 11 29.64 1004 10 16 0.00 0.00

Powered by AerisWeather